Location: ??????????
(54.7560°N, 39.1389°E)
Time: 04:46:10
(UTC+00:00)

Okean 2 - Pass Details

Date: 19 May 2025
Orbit: 522 x 534 km, 82.5° (Epoch: 19 June)

Event Time Altitude Azimuth Distance (km) Brightness Sun altitude
Exits shadow 23:25:19 12° 182° (S) 1,651 5.2 -10.6°
Maximum altitude 23:28:54 72° 98° (E) 568 3.4 -10.3°
Drops below altitude 10° 23:32:51 10° 15° (NNE) 1,804 7.3 -10.1°
Sets 23:35:01 0° 14° (NNE) 2,699 8.4 -9.9°
